SCP
0 0 0 -0 0 -0 0 0 0 0 -0 0 0 0 -0 -0 -0 -0 -0 0 -0 -0 0 0 -0 -0 0 0 0 0 0 0 0 0 0 0 0 0 0 0 0 0 0 0 0 0 0 0 0
0 0 0 0 -0 0 0 0 0 0 0 -0 -0 -0 -0 -0 -0 -0 -0 0 0 0 0 0 0 0 0 0 0 0 0 0 0 0 0 0 0 0 0 0 0 0 0 0 0 0 0 0 0
-0 0 0 -0 0 -0 0 -0 -0 -0 -0 -0 0 -0 -0 -0 -0 -0 -0 -0 0 0 0 0 0 0 0 0 0 0 0 0 0 0 0 0 0 0 0 0 0 0 0 0 0 0 0 0 0
0 0 0 -0 -0 -0 -0 -0 0 0 0 0 0 -0 0 0 0 -0 -0 0 0 0 0 0 0 0 0 0 0 0 0 0 0 0 0 0 0 0 0 0 0 0 0 0 0 0 0 0 0
0 0 -0 -0 0 0 -0 0 0 -0 -0 0 0 0 -0 -0 -0 -0 0 0 0 0 0 0 0 0 0 0 0 0 0 0 0 0 0 0 0 0 0 0 0 0 0 0 0 0 0 0 0
0 0 -0 -0 -0 0 -0 0 0 0 0 0 -0 0 -0 0 0 0 0 0 0 0 0 0 0 0 0 0 0 0 0 0 0 0 0 0 0 0 0 0 0 0 0 0 0 0 0 0 0
0 -0 -0 -0 -0 -0 0 -0 0 0 0 0 -0 0 0 0 0 0 0 0 0 0 0 0 0 0 0 0 0 0 0 0 0 0 0 0 0 0 0 0 0 0 0 0 0 0 0 0 0
0 -0 -0 -0 -0 -0 0 0 0 0 0 0 -0 0 0 0 0 0 0 0 0 0 0 -0 -0 0 0 0 0 0 0 0 0 0 0 0 0 0 0 0 0 0 0 0 0 0 0 0 0
0 -0 -0 -0 -0 -0 0 0 0 0 -0 0 0 0 0 -0 0 0 0 0 0 0 -0 -0 -0 -0 0 0 0 0 0 0 0 0 0 0 0 0 0 0 0 0 0 0 0 0 0 0 0
-0 0 0 -0 -0 0 0 0 0 0 0 0 0 0 -0 -0 0 0 0 0 0 0 0 0 0 0 0 0 0 0 0 0 0 0 0 0 0 0 0 0 0 0 0 0 0 0 0 0 0
0 0 0 0 0 0 0 0 0 0 0 0 0 0 0 0 0 0 0 0 0 0 0 0 0 0 0 0 0 0 0 0 0 0 0 0 0 0 0 0 0 0 0 0 0 0 0 0 0
-0 0 0 -0 0 0 0 0 0 0 0 0 0 0 0 0 0 0 0 0 0 0 0 0 0 0 0 0 0 0 0 0 0 0 0 0 0 0 0 0 0 0 0 0 0 0 0 0 0
-0 0 0 0 0 -0 0 0 0 0 0 0 0 0 0 0 0 0 0 0 0 0 0 0 0 0 0 0 0 0 0 0 0 0 0 0 0 0 0 0 0 0 0 0 0 0 0 0 0
-0 -0 0 0 0 0 0 0 0 0 0 0 0 0 0 0 0 0 0 0 0 0 0 0 0 0 0 0 0 0 0 0 0 0 0 0 0 0 0 0 0 0 0 0 0 0 0 0 0
0 0 0 0 0 0 0 0 0 0 0 0 0 0 0 0 0 0 0 0 0 0 0 0 0 0 0 0 0 0 0 0 0 0 0 0 0 0 0 0 0 0 0 0 0 0 0 0 0
-0 -0 0 0 0 0 0 0 0 0 0 0 0 0 0 0 0 0 0 0 0 0 0 0 0 0 0 0 0 0 0 0 0 0 0 0 0 0 0 0 0 0 0 0 0 0 0 0 0
0 0 0 0 0 0 0 0 0 0 0 0 0 0 0 0 0 0 0 0 0 0 0 0 0 0 0 0 0 0 0 0 0 0 0 0 0 0 0 0 0 0 0 0 0 0 0 0 0
0 0 0 0 0 0 0 0 0 0 0 0 0 0 0 0 0 0 0 0 0 0 0 0 0 0 0 0 0 0 0 0 0 0 0 0 0 0 0 0 0 0 0 0 0 0 0 0 0
0 0 0 0 0 0 0 0 1 0 0 0 0 0 0 0 -0 0 0 0 0 0 0 0 0 0 0 0 0 0 0 0 0 0 0 0 0 0 0 0 0 0 0 0 0 0 0 0 0
0 0 0 0 0 0 0 0 0 0 0 0 0 0 0 0 -0 -0 -0 0 0 0 0 0 0 0 0 0 0 0 0 0 0 0 0 0 0 0 0 0 0 0 0 0 0 0 0 0 0
0 0 0 0 0 0 0 0 0 1 0 0 0 0 0 0 0 0 0 0 0 0 0 0 0 0 0 0 0 0 0 0 0 0 0 0 0 0 0 0 0 0 0 0 0 0 0 0 0
0 0 0 0 0 0 0 0 0 0 0 0 0 0 0 0 0 0 0 0 0 0 0 0 0 0 0 0 0 0 0 0 0 0 0 0 0 0 0 0 0 0 0 0 0 0 0 0 0
0 0 0 0 0 0 0 0 0 0 0 0 0 0 0 0 0 0 0 0 0 0 0 0 0 0 0 0 0 0 0 0 0 0 0 0 0 0 0 0 0 0 0 0 0 0 0 0 0
0 0 0 0 0 0 0 0 0 0 0 0 0 0 0 0 0 0 0 0 0 0 0 0 0 0 0 0 0 0 0 0 0 0 0 0 0 0 0 0 0 0 0 0 0 0 0 0 0
0 0 0 0 0 0 0 0 0 0 0 0 0 0 0 0 0 0 0 0 0 0 0 0 0 0 0 0 0 0 0 0 0 0 0 0 0 0 0 0 0 0 0 0 0 0 0 0 0
0 0 0 0 0 0 0 0 0 0 0 0 0 0 0 0 0 0 0 0 0 0 0 0 0 0 0 0 0 0 0 0 0 0 0 0 0 0 0 0 0 0 0 0 0 0 0 0 0
0 0 0 0 0 0 0 0 0 0 0 0 0 0 0 0 0 0 0 0 0 0 0 0 0 0 0 0 0 0 0 0 0 0 0 0 0 0 0 0 0 0 0 0 0 0 0 0 0
0 0 0 0 0 0 0 0 0 0 0 0 0 0 0 0 0 0 0 0 0 0 0 0 0 0 0 0 0 0 0 0 0 0 0 0 0 0 0 0 0 0 0 0 0 0 0 0 0
0 0 0 0 0 0 0 0 0 0 0 0 0 0 0 0 0 0 0 0 0 0 0 0 0 0 0 0 0 0 0 0 0 0 0 0 0 0 0 0 0 0 0 0 0 0 0 0 0
0 0 0 0 0 0 0 0 0 0 0 0 0 0 0 0 0 0 0 0 0 0 0 0 0 0 0 0 0 0 0 0 0 0 0 0 0 0 0 0 0 0 0 0 0 0 0 0 0
Wind_Speed_500mb
8 6 6 2 7 10 4 3 4 3 3 1 9 11 13 10 3 2 23 27 33 26 23 19 15 5 6 8 10 10 11 10 9 7 5 3 2 1 1 3 5 5 7 7 2 1 6 11 11
6 4 7 2 9 8 1 4 6 2 16 26 21 15 9 6 6 18 37 28 29 24 20 15 7 5 8 10 10 11 12 12 11 9 7 6 4 4 6 6 7 8 9 10 12 13 13 12 15
3 8 3 7 6 6 5 6 4 18 13 3 8 15 6 6 14 32 24 27 28 24 16 8 5 8 9 9 10 12 13 13 12 12 12 11 10 9 9 10 12 15 15 17 18 17 17 19 19
1 5 10 9 9 3 2 8 13 16 10 9 17 12 8 11 17 15 28 27 24 20 16 11 7 7 8 10 14 17 16 14 12 12 13 14 16 15 14 13 13 15 17 20 22 23 22 22 23
5 6 9 8 6 6 1 22 28 7 8 11 5 7 7 7 11 22 27 26 24 22 17 12 10 8 7 12 17 18 18 17 13 13 16 17 17 15 13 14 15 17 17 17 18 21 25 27 28
5 6 10 5 5 2 7 28 13 5 7 11 12 10 6 13 20 27 25 25 23 17 18 15 10 5 4 9 14 17 19 22 21 20 16 14 14 13 11 12 14 16 17 15 15 15 15 21 27
9 8 9 6 3 5 9 25 10 11 11 3 23 7 7 24 27 27 27 25 22 21 16 10 3 3 6 9 15 17 19 20 20 22 19 16 19 16 15 15 18 16 18 15 14 17 17 16 17
6 10 4 2 2 3 16 10 20 8 5 19 8 8 11 40 37 30 27 29 27 21 15 7 4 7 11 15 17 19 20 22 21 21 19 17 22 20 21 22 23 19 18 20 18 21 22 19 17
5 8 4 6 7 5 20 9 10 4 20 10 11 4 9 45 42 36 36 34 29 22 13 9 1 3 9 13 18 17 19 21 21 24 24 21 25 27 25 24 27 26 25 20 18 20 22 24 22
6 7 13 9 8 8 25 14 21 10 16 9 9 13 17 48 45 39 37 34 31 25 17 13 6 5 10 16 20 20 20 21 21 25 22 22 24 28 27 34 30 27 25 24 24 25 27 31 32
4 8 8 11 18 24 29 16 16 19 6 18 17 24 47 52 45 37 30 27 23 23 22 15 8 4 8 17 18 20 21 25 24 24 23 22 21 25 28 35 30 25 19 17 16 20 26 27 26
4 11 11 9 2 36 26 26 12 14 8 15 22 28 55 51 45 39 32 32 30 32 25 20 12 6 12 15 19 19 22 24 20 23 21 23 25 28 31 36 34 23 21 23 28 26 25 24 20
4 7 13 13 7 19 34 14 13 5 8 20 31 44 48 43 40 34 29 33 32 33 28 26 19 16 17 19 23 22 23 23 24 25 23 22 23 27 31 29 28 32 32 30 29 31 33 25 21
8 2 4 8 12 11 16 11 8 13 28 35 43 47 43 40 37 38 37 38 38 37 35 34 29 25 23 24 27 27 23 26 25 28 28 28 25 26 28 22 30 33 35 30 32 36 36 25 25
4 3 10 4 11 6 21 4 10 27 34 42 43 41 44 45 45 40 33 35 40 42 44 40 35 32 33 32 34 32 30 30 31 32 32 33 34 30 29 30 33 35 37 35 30 33 36 33 32
7 8 4 3 23 10 15 15 8 42 48 48 45 42 43 45 51 49 44 43 41 41 44 39 39 42 40 37 40 38 38 39 39 36 39 39 39 34 36 36 35 35 41 33 33 29 31 33 40
8 6 9 13 19 10 11 12 19 51 52 49 51 50 46 41 47 48 48 46 41 41 44 43 46 45 46 44 45 47 44 46 48 48 45 42 42 30 39 42 37 35 40 36 34 33 35 41 46
12 10 11 11 13 15 15 18 15 43 41 44 49 48 44 40 40 34 34 38 37 37 37 36 38 43 47 51 53 54 52 49 52 52 50 49 46 36 32 34 35 35 36 36 37 39 41 43 42
10 12 15 6 10 7 19 12 21 38 33 31 42 45 46 40 29 31 30 34 31 28 22 23 29 31 38 43 46 45 48 52 50 50 46 45 45 43 39 35 37 37 36 34 39 42 42 44 42
9 6 11 5 4 4 6 7 13 29 39 34 38 44 48 42 36 34 34 34 30 24 22 24 22 22 26 31 33 38 41 44 45 45 39 40 43 44 45 41 41 41 40 41 43 40 42 42 36
7 10 9 8 9 3 10 9 12 13 29 33 41 44 48 43 40 38 37 34 32 29 20 25 23 22 21 23 30 38 41 43 49 46 42 40 45 46 49 51 46 45 43 45 42 39 39 41 35
10 15 9 11 8 8 4 8 10 12 19 33 38 40 51 48 46 42 38 33 28 26 25 26 22 18 19 25 30 34 39 48 50 48 41 40 41 45 48 50 47 43 43 43 35 33 38 39 35
18 9 10 8 8 6 1 4 10 2 12 20 35 50 46 48 49 37 33 29 28 26 30 23 12 15 20 24 26 26 33 39 44 45 45 46 47 45 47 49 49 46 46 38 36 35 37 39 36
6 7 12 8 8 3 8 10 12 9 11 8 26 29 25 26 29 26 26 28 30 31 25 18 16 19 18 23 24 27 30 33 41 44 50 59 58 52 49 45 56 54 44 41 38 33 35 35 32
13 11 6 5 5 11 8 6 17 10 13 13 21 28 28 29 32 31 29 28 26 26 22 17 19 18 22 24 27 29 28 32 39 43 49 53 57 56 50 45 42 43 49 38 31 32 26 27 28
11 15 10 11 8 10 5 11 10 10 17 18 26 30 32 33 32 30 29 27 28 26 19 20 23 23 28 30 30 30 34 34 40 45 53 57 52 52 49 45 46 44 46 36 42 37 33 31 30
6 7 7 8 4 4 5 12 12 3 4 8 24 29 31 33 36 33 31 30 32 23 18 20 21 31 32 31 33 36 36 39 40 47 55 55 53 52 49 52 53 43 38 40 38 37 32 33 29
4 8 4 5 5 9 6 8 9 10 16 15 19 34 37 35 34 29 28 29 30 19 21 27 30 33 31 32 38 38 41 40 45 54 54 55 55 53 54 55 54 49 46 45 40 32 34 29 25
7 5 11 7 7 5 4 11 13 17 20 20 32 40 42 35 27 29 27 28 31 26 30 36 36 32 32 34 35 40 40 46 48 54 51 50 51 50 56 57 55 48 44 45 40 31 35 32 29
1 2 7 9 9 2 6 13 4 12 20 30 36 35 35 29 27 28 28 28 29 32 33 33 28 30 34 37 35 41 48 53 61 57 48 47 53 53 58 54 52 43 35 33 35 33 33 30 31
Wind_Direction_500mb
108 84 140 185 67 66 51 58 344 53 92 97 110 129 124 56 50 151 150 150 153 159 144 140 145 108 42 28 41 48 50 50 60 62 56 59 19 36 182 222 234 258 271 276 338 332 265 250 257
170 67 61 97 75 74 260 280 247 211 131 97 85 91 61 93 92 134 151 151 160 163 151 154 151 92 48 38 28 29 28 20 19 12 3 344 326 315 309 302 301 296 292 275 269 261 270 260 255
123 23 43 85 106 106 136 208 114 126 128 65 99 75 78 110 139 149 162 164 167 174 175 173 117 59 52 44 30 21 11 4 354 344 333 325 318 311 299 296 292 287 286 291 292 285 277 263 254
78 25 55 69 48 360 59 156 137 129 88 58 115 69 78 105 131 136 142 149 157 159 156 149 107 80 63 52 33 21 9 355 336 321 309 304 303 305 306 304 300 291 288 284 281 279 274 269 262
46 51 59 65 346 290 112 153 158 155 119 129 139 140 106 150 162 150 141 137 138 144 146 139 117 99 72 43 29 29 31 30 3 332 316 308 303 302 306 306 306 312 313 304 294 280 270 265 261
36 63 55 70 330 339 76 160 158 109 136 139 105 107 124 154 151 150 143 134 137 149 146 144 143 127 46 22 15 22 29 24 20 14 358 341 332 329 320 311 311 313 309 313 314 307 287 272 266
108 80 158 147 198 140 155 173 164 157 132 147 142 89 149 159 155 153 149 149 152 153 149 154 149 23 354 347 356 3 6 4 7 5 357 354 353 339 327 314 318 319 314 311 317 314 305 307 293
72 87 79 348 163 203 154 124 146 124 94 154 153 179 188 168 161 157 159 162 161 163 166 151 30 5 345 344 351 355 349 344 349 355 5 7 353 341 327 322 318 326 312 316 328 321 318 318 310
111 68 142 186 167 198 159 131 158 135 154 168 188 236 182 166 164 165 164 169 174 180 182 179 83 14 345 341 342 346 343 337 334 342 346 357 359 359 354 337 321 315 314 314 317 318 318 316 309
94 104 203 196 183 197 179 153 157 161 167 210 231 225 186 174 173 174 176 178 184 191 208 209 224 327 348 335 342 344 340 342 338 336 333 337 342 342 347 334 316 304 300 293 294 295 301 304 302
153 162 203 239 225 186 162 139 178 157 248 223 208 175 175 178 180 182 186 200 207 217 227 229 234 300 310 314 338 338 335 339 339 335 330 334 340 340 333 344 331 307 300 291 278 292 304 316 304
136 185 196 246 213 166 156 149 144 179 277 262 197 178 176 183 188 192 204 209 220 222 218 230 216 248 287 308 321 324 335 332 328 347 340 334 332 329 328 337 349 338 303 296 291 292 305 314 302
255 181 202 281 216 136 139 134 156 165 168 174 176 175 180 190 198 203 214 224 225 220 221 230 228 233 251 286 306 315 332 327 317 329 337 329 323 315 316 330 345 352 341 307 292 293 306 300 295
329 298 45 8 94 127 130 155 179 184 168 172 176 180 192 202 208 208 218 226 232 232 234 231 230 235 259 286 303 298 317 318 315 323 321 322 312 318 328 330 336 335 333 317 292 296 308 296 289
87 21 337 207 142 138 136 274 224 183 183 176 183 189 200 207 210 220 235 236 236 237 230 233 243 259 274 281 299 294 299 306 311 312 316 316 307 298 306 308 316 321 324 319 313 291 303 300 300
82 64 355 251 163 186 161 259 203 187 184 185 186 196 201 203 212 219 228 233 237 236 238 250 258 269 276 281 292 290 292 295 297 298 304 303 314 294 292 293 303 312 318 309 317 303 300 301 300
5 230 205 319 183 140 171 260 191 192 191 193 194 203 204 207 215 221 228 237 242 250 253 261 266 273 278 279 289 294 294 302 302 293 298 304 304 307 291 290 292 304 311 302 305 304 302 308 310
207 223 225 214 200 180 197 250 171 196 200 210 206 209 210 218 232 235 238 245 244 249 252 261 269 272 275 279 292 295 294 303 310 302 291 299 293 295 298 293 293 299 305 297 297 295 297 305 317
205 205 220 197 190 138 212 229 190 202 212 224 225 221 218 222 228 234 230 236 235 239 253 269 273 279 279 283 288 296 298 296 307 308 298 291 287 286 292 292 287 290 295 294 292 289 292 298 308
202 221 242 214 63 162 108 298 219 211 222 224 230 233 232 231 232 232 231 235 235 242 256 260 274 284 284 284 290 294 297 305 305 311 299 289 294 291 284 282 281 280 285 291 293 285 286 292 301
230 200 235 219 113 119 136 279 211 215 219 232 244 247 245 242 239 236 238 241 242 234 249 256 265 270 279 293 303 305 306 308 315 315 305 287 292 293 281 277 276 271 276 288 286 279 277 286 288
253 210 219 133 118 238 13 267 243 209 207 222 232 240 244 245 246 248 248 248 250 244 240 252 258 271 300 312 313 313 319 317 314 315 315 312 309 307 288 279 275 270 277 282 279 277 273 278 277
233 206 207 142 131 92 241 87 262 37 248 229 225 236 243 247 245 246 247 245 235 227 238 243 267 301 312 311 316 319 334 329 316 314 315 315 308 312 301 281 271 270 277 272 270 272 268 273 270
90 70 46 61 101 199 204 155 280 206 222 214 223 228 231 221 216 211 214 215 224 230 232 242 275 296 318 331 314 302 307 315 308 310 312 310 310 312 310 294 272 264 263 263 266 265 269 267 265
69 58 315 327 345 239 165 129 246 252 246 240 199 203 194 189 192 198 207 215 225 222 225 257 282 299 319 309 298 289 301 303 309 309 316 312 309 311 314 304 294 276 263 254 262 260 259 263 265
187 160 168 236 233 273 181 235 259 239 277 247 213 203 192 192 193 204 211 214 209 237 243 266 284 295 298 285 280 282 287 291 304 311 316 315 306 311 308 311 304 288 275 261 249 250 255 258 260
193 188 172 129 35 68 252 294 298 279 294 211 197 198 202 203 200 203 207 212 220 228 268 283 282 301 285 278 286 289 282 287 297 302 303 302 305 310 306 305 303 293 274 249 241 240 254 262 265
179 158 14 11 288 289 305 284 248 249 239 217 206 210 209 203 199 207 219 230 233 249 271 264 278 280 276 280 282 277 282 287 296 304 299 302 305 310 309 308 306 290 264 260 247 245 243 255 258
5 8 55 115 133 199 292 264 218 224 218 209 215 214 211 203 216 230 229 225 231 248 257 261 265 269 277 276 275 284 292 299 306 306 303 302 304 308 312 311 310 299 265 253 253 241 246 255 254
8 360 141 120 261 127 159 272 322 286 280 249 218 214 202 209 219 209 222 233 244 251 265 270 267 277 277 279 284 295 302 304 305 303 300 303 307 306 311 308 306 297 257 253 234 248 245 246 245
Wind_Speed_850mb
8 6 6 2 7 10 4 3 4 3 3 1 9 11 13 10 3 2 23 27 33 26 23 19 15 5 6 8 10 10 11 10 9 7 5 3 2 1 1 3 5 5 7 7 2 1 6 11 11
6 4 7 2 9 8 1 4 6 2 16 26 21 15 9 6 6 18 37 28 29 24 20 15 7 5 8 10 10 11 12 12 11 9 7 6 4 4 6 6 7 8 9 10 12 13 13 12 15
3 8 3 7 6 6 5 6 4 18 13 3 8 15 6 6 14 32 24 27 28 24 16 8 5 8 9 9 10 12 13 13 12 12 12 11 10 9 9 10 12 15 15 17 18 17 17 19 19
1 5 10 9 9 3 2 8 13 16 10 9 17 12 8 11 17 15 28 27 24 20 16 11 7 7 8 10 14 17 16 14 12 12 13 14 16 15 14 13 13 15 17 20 22 23 22 22 23
5 6 9 8 6 6 1 22 28 7 8 11 5 7 7 7 11 22 27 26 24 22 17 12 10 8 7 12 17 18 18 17 13 13 16 17 17 15 13 14 15 17 17 17 18 21 25 27 28
5 6 10 5 5 2 7 28 13 5 7 11 12 10 6 13 20 27 25 25 23 17 18 15 10 5 4 9 14 17 19 22 21 20 16 14 14 13 11 12 14 16 17 15 15 15 15 21 27
9 8 9 6 3 5 9 25 10 11 11 3 23 7 7 24 27 27 27 25 22 21 16 10 3 3 6 9 15 17 19 20 20 22 19 16 19 16 15 15 18 16 18 15 14 17 17 16 17
6 10 4 2 2 3 16 10 20 8 5 19 8 8 11 40 37 30 27 29 27 21 15 7 4 7 11 15 17 19 20 22 21 21 19 17 22 20 21 22 23 19 18 20 18 21 22 19 17
5 8 4 6 7 5 20 9 10 4 20 10 11 4 9 45 42 36 36 34 29 22 13 9 1 3 9 13 18 17 19 21 21 24 24 21 25 27 25 24 27 26 25 20 18 20 22 24 22
6 7 13 9 8 8 25 14 21 10 16 9 9 13 17 48 45 39 37 34 31 25 17 13 6 5 10 16 20 20 20 21 21 25 22 22 24 28 27 34 30 27 25 24 24 25 27 31 32
4 8 8 11 18 24 29 16 16 19 6 18 17 24 47 52 45 37 30 27 23 23 22 15 8 4 8 17 18 20 21 25 24 24 23 22 21 25 28 35 30 25 19 17 16 20 26 27 26
4 11 11 9 2 36 26 26 12 14 8 15 22 28 55 51 45 39 32 32 30 32 25 20 12 6 12 15 19 19 22 24 20 23 21 23 25 28 31 36 34 23 21 23 28 26 25 24 20
4 7 13 13 7 19 34 14 13 5 8 20 31 44 48 43 40 34 29 33 32 33 28 26 19 16 17 19 23 22 23 23 24 25 23 22 23 27 31 29 28 32 32 30 29 31 33 25 21
8 2 4 8 12 11 16 11 8 13 28 35 43 47 43 40 37 38 37 38 38 37 35 34 29 25 23 24 27 27 23 26 25 28 28 28 25 26 28 22 30 33 35 30 32 36 36 25 25
4 3 10 4 11 6 21 4 10 27 34 42 43 41 44 45 45 40 33 35 40 42 44 40 35 32 33 32 34 32 30 30 31 32 32 33 34 30 29 30 33 35 37 35 30 33 36 33 32
7 8 4 3 23 10 15 15 8 42 48 48 45 42 43 45 51 49 44 43 41 41 44 39 39 42 40 37 40 38 38 39 39 36 39 39 39 34 36 36 35 35 41 33 33 29 31 33 40
8 6 9 13 19 10 11 12 19 51 52 49 51 50 46 41 47 48 48 46 41 41 44 43 46 45 46 44 45 47 44 46 48 48 45 42 42 30 39 42 37 35 40 36 34 33 35 41 46
12 10 11 11 13 15 15 18 15 43 41 44 49 48 44 40 40 34 34 38 37 37 37 36 38 43 47 51 53 54 52 49 52 52 50 49 46 36 32 34 35 35 36 36 37 39 41 43 42
10 12 15 6 10 7 19 12 21 38 33 31 42 45 46 40 29 31 30 34 31 28 22 23 29 31 38 43 46 45 48 52 50 50 46 45 45 43 39 35 37 37 36 34 39 42 42 44 42
9 6 11 5 4 4 6 7 13 29 39 34 38 44 48 42 36 34 34 34 30 24 22 24 22 22 26 31 33 38 41 44 45 45 39 40 43 44 45 41 41 41 40 41 43 40 42 42 36
7 10 9 8 9 3 10 9 12 13 29 33 41 44 48 43 40 38 37 34 32 29 20 25 23 22 21 23 30 38 41 43 49 46 42 40 45 46 49 51 46 45 43 45 42 39 39 41 35
10 15 9 11 8 8 4 8 10 12 19 33 38 40 51 48 46 42 38 33 28 26 25 26 22 18 19 25 30 34 39 48 50 48 41 40 41 45 48 50 47 43 43 43 35 33 38 39 35
18 9 10 8 8 6 1 4 10 2 12 20 35 50 46 48 49 37 33 29 28 26 30 23 12 15 20 24 26 26 33 39 44 45 45 46 47 45 47 49 49 46 46 38 36 35 37 39 36
6 7 12 8 8 3 8 10 12 9 11 8 26 29 25 26 29 26 26 28 30 31 25 18 16 19 18 23 24 27 30 33 41 44 50 59 58 52 49 45 56 54 44 41 38 33 35 35 32
13 11 6 5 5 11 8 6 17 10 13 13 21 28 28 29 32 31 29 28 26 26 22 17 19 18 22 24 27 29 28 32 39 43 49 53 57 56 50 45 42 43 49 38 31 32 26 27 28
11 15 10 11 8 10 5 11 10 10 17 18 26 30 32 33 32 30 29 27 28 26 19 20 23 23 28 30 30 30 34 34 40 45 53 57 52 52 49 45 46 44 46 36 42 37 33 31 30
6 7 7 8 4 4 5 12 12 3 4 8 24 29 31 33 36 33 31 30 32 23 18 20 21 31 32 31 33 36 36 39 40 47 55 55 53 52 49 52 53 43 38 40 38 37 32 33 29
4 8 4 5 5 9 6 8 9 10 16 15 19 34 37 35 34 29 28 29 30 19 21 27 30 33 31 32 38 38 41 40 45 54 54 55 55 53 54 55 54 49 46 45 40 32 34 29 25
7 5 11 7 7 5 4 11 13 17 20 20 32 40 42 35 27 29 27 28 31 26 30 36 36 32 32 34 35 40 40 46 48 54 51 50 51 50 56 57 55 48 44 45 40 31 35 32 29
1 2 7 9 9 2 6 13 4 12 20 30 36 35 35 29 27 28 28 28 29 32 33 33 28 30 34 37 35 41 48 53 61 57 48 47 53 53 58 54 52 43 35 33 35 33 33 30 31
Wind_Direction_850mb
108 84 140 185 67 66 51 58 344 53 92 97 110 129 124 56 50 151 150 150 153 159 144 140 145 108 42 28 41 48 50 50 60 62 56 59 19 36 182 222 234 258 271 276 338 332 265 250 257
170 67 61 97 75 74 260 280 247 211 131 97 85 91 61 93 92 134 151 151 160 163 151 154 151 92 48 38 28 29 28 20 19 12 3 344 326 315 309 302 301 296 292 275 269 261 270 260 255
123 23 43 85 106 106 136 208 114 126 128 65 99 75 78 110 139 149 162 164 167 174 175 173 117 59 52 44 30 21 11 4 354 344 333 325 318 311 299 296 292 287 286 291 292 285 277 263 254
78 25 55 69 48 360 59 156 137 129 88 58 115 69 78 105 131 136 142 149 157 159 156 149 107 80 63 52 33 21 9 355 336 321 309 304 303 305 306 304 300 291 288 284 281 279 274 269 262
46 51 59 65 346 290 112 153 158 155 119 129 139 140 106 150 162 150 141 137 138 144 146 139 117 99 72 43 29 29 31 30 3 332 316 308 303 302 306 306 306 312 313 304 294 280 270 265 261
36 63 55 70 330 339 76 160 158 109 136 139 105 107 124 154 151 150 143 134 137 149 146 144 143 127 46 22 15 22 29 24 20 14 358 341 332 329 320 311 311 313 309 313 314 307 287 272 266
108 80 158 147 198 140 155 173 164 157 132 147 142 89 149 159 155 153 149 149 152 153 149 154 149 23 354 347 356 3 6 4 7 5 357 354 353 339 327 314 318 319 314 311 317 314 305 307 293
72 87 79 348 163 203 154 124 146 124 94 154 153 179 188 168 161 157 159 162 161 163 166 151 30 5 345 344 351 355 349 344 349 355 5 7 353 341 327 322 318 326 312 316 328 321 318 318 310
111 68 142 186 167 198 159 131 158 135 154 168 188 236 182 166 164 165 164 169 174 180 182 179 83 14 345 341 342 346 343 337 334 342 346 357 359 359 354 337 321 315 314 314 317 318 318 316 309
94 104 203 196 183 197 179 153 157 161 167 210 231 225 186 174 173 174 176 178 184 191 208 209 224 327 348 335 342 344 340 342 338 336 333 337 342 342 347 334 316 304 300 293 294 295 301 304 302
153 162 203 239 225 186 162 139 178 157 248 223 208 175 175 178 180 182 186 200 207 217 227 229 234 300 310 314 338 338 335 339 339 335 330 334 340 340 333 344 331 307 300 291 278 292 304 316 304
136 185 196 246 213 166 156 149 144 179 277 262 197 178 176 183 188 192 204 209 220 222 218 230 216 248 287 308 321 324 335 332 328 347 340 334 332 329 328 337 349 338 303 296 291 292 305 314 302
255 181 202 281 216 136 139 134 156 165 168 174 176 175 180 190 198 203 214 224 225 220 221 230 228 233 251 286 306 315 332 327 317 329 337 329 323 315 316 330 345 352 341 307 292 293 306 300 295
329 298 45 8 94 127 130 155 179 184 168 172 176 180 192 202 208 208 218 226 232 232 234 231 230 235 259 286 303 298 317 318 315 323 321 322 312 318 328 330 336 335 333 317 292 296 308 296 289
87 21 337 207 142 138 136 274 224 183 183 176 183 189 200 207 210 220 235 236 236 237 230 233 243 259 274 281 299 294 299 306 311 312 316 316 307 298 306 308 316 321 324 319 313 291 303 300 300
82 64 355 251 163 186 161 259 203 187 184 185 186 196 201 203 212 219 228 233 237 236 238 250 258 269 276 281 292 290 292 295 297 298 304 303 314 294 292 293 303 312 318 309 317 303 300 301 300
5 230 205 319 183 140 171 260 191 192 191 193 194 203 204 207 215 221 228 237 242 250 253 261 266 273 278 279 289 294 294 302 302 293 298 304 304 307 291 290 292 304 311 302 305 304 302 308 310
207 223 225 214 200 180 197 250 171 196 200 210 206 209 210 218 232 235 238 245 244 249 252 261 269 272 275 279 292 295 294 303 310 302 291 299 293 295 298 293 293 299 305 297 297 295 297 305 317
205 205 220 197 190 138 212 229 190 202 212 224 225 221 218 222 228 234 230 236 235 239 253 269 273 279 279 283 288 296 298 296 307 308 298 291 287 286 292 292 287 290 295 294 292 289 292 298 308
202 221 242 214 63 162 108 298 219 211 222 224 230 233 232 231 232 232 231 235 235 242 256 260 274 284 284 284 290 294 297 305 305 311 299 289 294 291 284 282 281 280 285 291 293 285 286 292 301
230 200 235 219 113 119 136 279 211 215 219 232 244 247 245 242 239 236 238 241 242 234 249 256 265 270 279 293 303 305 306 308 315 315 305 287 292 293 281 277 276 271 276 288 286 279 277 286 288
253 210 219 133 118 238 13 267 243 209 207 222 232 240 244 245 246 248 248 248 250 244 240 252 258 271 300 312 313 313 319 317 314 315 315 312 309 307 288 279 275 270 277 282 279 277 273 278 277
233 206 207 142 131 92 241 87 262 37 248 229 225 236 243 247 245 246 247 245 235 227 238 243 267 301 312 311 316 319 334 329 316 314 315 315 308 312 301 281 271 270 277 272 270 272 268 273 270
90 70 46 61 101 199 204 155 280 206 222 214 223 228 231 221 216 211 214 215 224 230 232 242 275 296 318 331 314 302 307 315 308 310 312 310 310 312 310 294 272 264 263 263 266 265 269 267 265
69 58 315 327 345 239 165 129 246 252 246 240 199 203 194 189 192 198 207 215 225 222 225 257 282 299 319 309 298 289 301 303 309 309 316 312 309 311 314 304 294 276 263 254 262 260 259 263 265
187 160 168 236 233 273 181 235 259 239 277 247 213 203 192 192 193 204 211 214 209 237 243 266 284 295 298 285 280 282 287 291 304 311 316 315 306 311 308 311 304 288 275 261 249 250 255 258 260
193 188 172 129 35 68 252 294 298 279 294 211 197 198 202 203 200 203 207 212 220 228 268 283 282 301 285 278 286 289 282 287 297 302 303 302 305 310 306 305 303 293 274 249 241 240 254 262 265
179 158 14 11 288 289 305 284 248 249 239 217 206 210 209 203 199 207 219 230 233 249 271 264 278 280 276 280 282 277 282 287 296 304 299 302 305 310 309 308 306 290 264 260 247 245 243 255 258
5 8 55 115 133 199 292 264 218 224 218 209 215 214 211 203 216 230 229 225 231 248 257 261 265 269 277 276 275 284 292 299 306 306 303 302 304 308 312 311 310 299 265 253 253 241 246 255 254
8 360 141 120 261 127 159 272 322 286 280 249 218 214 202 209 219 209 222 233 244 251 265 270 267 277 277 279 284 295 302 304 305 303 300 303 307 306 311 308 306 297 257 253 234 248 245 246 245